Weather in Gubino

Russia / Moscow Oblast     55°27′13″N   38°35′34″E
temp.,
°C
wind,
m/s
gust,
m/s
humid.,
%
clouds,
%
prec.,
mm/h
press.,
hPa
HPBL,
m
16 june, wed
wed1600:00+17nw239026 0.6 100949
03:00+15nw35950 1.0 101094
06:00+17nw37910 0.0 1010208
09:00+21nnw56668 0.0 1011711
12:00+23nnw665399 0.0 10121592
15:00+22nnw476099 0.0 1013844
18:00+22n575348 0.0 10141037
21:00+15n36670 0.0 101797
17 june, thu
thu1700:00+13n346877 0.0 101961
03:00+11n23705 0.0 102145
06:00+13nnw26745 0.0 1022171
09:00+19n35463 0.0 1023704
12:00+22nne45385 0.0 10241589
15:00+23n34370 0.0 10242001
18:00+22n35500 0.0 1024958
21:00+16ne11675 0.0 102511
18 june, fri
fri1800:00+14ssw11735 0.0 102610
03:00+13wsw12766 0.0 102711
06:00+15w1274100 0.0 102880
09:00+21w22575 0.0 1028464
12:00+25wsw224714 0.0 10271423
15:00+25sw32471 0.0 10271530
18:00+24sw235729 0.0 1026767
21:00+19sw3881100 0.0 1027138
19 june, sat
sat1900:00+16sw378751 0.0 1027135
03:00+15wsw36914 0.0 1028102
06:00+17wsw26845 0.0 1029172
09:00+22wsw356617 0.0 1029574
12:00+25sw34568 0.0 10281162
15:00+26sw34515 0.0 10271415
18:00+25ssw346124 0.0 1026775
21:00+19sw378476 0.0 1026130
20 june, sun
sun2000:00+17wsw368596 0.0 1027101
03:00+16wsw3489100 0.0 102765
06:00+18wsw248476 0.0 1027130
09:00+23wsw236611 0.0 1026569
12:00+25sw33530 0.0 10251179
15:00+27sw33505 0.0 10241415
18:00+26ssw335928 0.0 10231096
21:00+20ssw348787 0.0 102366